[[{"header":{"parameterUnit":"m.s-1","parameterCategory":1,"la1":30.2991,"la2":30.254,"lo1":-89.0895,"lo2":-89.0444,"dy":0.0017,"dx":0.0017,"nx":28,"ny":28,"refTime":"2025-08-27T21:00:00:Z","depth":0,"parameterNumber":2,"parameterNumberName":"U-component_of_WINDS"},"data":[0,0,0,0,0,0,0,0,0,0,0,0,0,0,0,0,0,0,0,0,0,0,0,0,0,0,0,0,0,0,0,0,0,0,0,0,0,0,0,0,0,0,0,0,0,0,0,0,0,0,0,0,0,0,0,0,0,0,-1.2889,-1.289,0,-1.2962,-1.2963,-1.2963,-1.2997,-1.2997,-1.2997,-1.2997,-1.3068,-1.307,-1.3072,0,0,0,0,0,0,0,0,0,0,0,0,0,-1.2778,-1.278,-1.2889,-1.289,-1.2891,-1.2962,-1.2963,-1.2964,-1.2997,-1.2997,-1.2997,-1.2997,-1.3068,-1.307,-1.3072,0,0,0,0,0,0,0,0,0,0,0,0,0,-1.2836,-1.278,-1.2889,-1.2916,-1.2919,-1.2961,-1.2963,-1.2964,-1.2997,-1.2997,-1.2997,-1.2997,-1.3067,-1.307,-1.3073,-1.3093,0,0,-1.3082,-1.3083,0,0,0,0,0,0,0,0,-1.2832,-1.284,-1.2911,-1.2914,-1.2918,-1.297,-1.295,-1.3007,-1.2997,-1.2967,-1.2997,-1.2997,-1.3036,-1.3041,-1.3055,-1.3096,-1.3099,-1.3082,-1.3084,-1.3085,-1.3086,0,0,0,0,0,0,0,-1.2828,-1.2837,-1.2918,-1.2912,-1.2916,-1.2924,-1.2932,-1.2961,-1.3001,-1.297,-1.2973,-1.2981,-1.3037,-1.3052,-1.3057,-1.31,-1.3082,-1.3085,-1.3086,-1.3087,-1.3162,-1.3162,0,0,0,0,0,0,-1.282,-1.2833,-1.2916,-1.292,-1.2874,-1.2926,-1.2935,-1.2954,-1.3001,-1.3008,-1.2981,-1.2982,-1.3047,-1.3053,-1.3059,-1.3086,-1.3085,-1.3088,-1.3089,-1.3161,-1.3162,-1.3162,0,0,0,0,0,0,-1.2818,-1.2827,-1.2913,-1.2877,-1.2889,-1.2928,-1.2948,-1.2955,-1.297,-1.3009,-1.3016,-1.2988,-1.3047,-1.3055,-1.3084,-1.3089,-1.3089,-1.3092,-1.3161,-1.3162,-1.3162,-1.314,0,0,0,0,0,0,-1.2814,-1.2826,-1.2834,-1.2877,-1.2891,-1.2937,-1.2949,-1.2956,-1.2975,-1.2977,-1.3018,-1.3025,-1.3048,-1.308,-1.3087,-1.3093,-1.3094,-1.3161,-1.3161,-1.3162,-1.314,-1.3139,-1.3138,0,0,0,0,0,-1.281,-1.2824,-1.2835,-1.2844,-1.2902,-1.2937,-1.2945,-1.2972,-1.2975,-1.2984,-1.3009,-1.3023,-1.3087,-1.3083,-1.3091,-1.3098,-1.3161,-1.3161,-1.3162,-1.314,-1.3139,-1.3138,0,0,0,0,0,0,-1.278,-1.2831,-1.2842,-1.2871,-1.29,-1.2943,-1.2954,-1.2969,-1.2997,-1.2998,-1.3029,-1.3038,-1.3065,-1.3084,-1.3078,-1.312,-1.3125,-1.3128,-1.3106,-1.3105,-1.3105,-1.3099,-1.3097,0,0,0,0,0,-1.2777,-1.2802,-1.2844,-1.2866,-1.2879,-1.2914,-1.293,-1.2949,-1.2979,-1.2991,-1.3019,-1.3047,-1.3074,-1.3091,-1.3118,-1.3143,-1.3153,-1.3152,-1.3151,-1.315,-1.3152,-1.3167,-1.3168,-1.3164,-1.3164,-1.3163,0,0,-1.277,-1.2801,-1.2814,-1.286,-1.2885,-1.2909,-1.2924,-1.2949,-1.2968,-1.2995,-1.3025,-1.3046,-1.308,-1.3107,-1.3121,-1.3124,-1.3155,-1.3151,-1.315,-1.3152,-1.3168,-1.3168,-1.3169,-1.3164,-1.3164,-1.3164,0,0,-1.2771,-1.2796,-1.2817,-1.2842,-1.2879,-1.2902,-1.2907,-1.2948,-1.2963,-1.2994,-1.3015,-1.3037,-1.3082,-1.3106,-1.3123,-1.3134,-1.3148,-1.3142,-1.3137,-1.3152,-1.3152,-1.3152,-1.3156,-1.3157,-1.3143,-1.3143,-1.3143,0,-1.2757,-1.2796,-1.2826,-1.2851,-1.287,-1.2897,-1.2918,-1.294,-1.2983,-1.2996,-1.3,-1.3058,-1.3082,-1.3116,-1.3119,-1.3132,-1.3139,-1.3137,-1.315,-1.315,-1.3151,-1.3155,-1.3157,-1.3142,-1.3142,-1.3142,-1.3142,0,-1.2778,-1.2805,-1.2817,-1.286,-1.2881,-1.2903,-1.2936,-1.2953,-1.297,-1.2993,-1.3024,-1.3054,-1.3088,-1.3097,-1.3113,-1.3134,-1.3135,-1.3144,-1.315,-1.315,-1.3155,-1.3156,-1.3141,-1.3141,-1.3141,-1.3141,0,0,-1.2761,-1.2821,-1.2825,-1.2845,-1.2888,-1.2909,-1.2932,-1.2966,-1.2981,-1.301,-1.3031,-1.3069,-1.3078,-1.3098,-1.3117,-1.313,-1.3137,-1.3137,-1.3139,-1.3136,-1.3161,-1.3154,-1.3156,-1.3147,-1.3147,-1.3148,-1.3159,0,-1.2768,-1.2813,-1.2841,-1.2874,-1.2899,-1.2925,-1.2946,-1.2975,-1.2997,-1.3021,-1.3045,-1.3071,-1.3081,-1.3093,-1.3107,-1.3133,-1.3142,-1.3133,-1.3166,-1.3167,-1.3157,-1.3158,-1.3151,-1.316,-1.316,-1.3161,-1.3161,0,-1.2781,-1.2811,-1.2847,-1.2889,-1.29,-1.2918,-1.2952,-1.2975,-1.3008,-1.3023,-1.3046,-1.3066,-1.3092,-1.3096,-1.3132,-1.3125,-1.314,-1.3155,-1.3156,-1.316,-1.3164,-1.3162,-1.3163,-1.3164,-1.3164,-1.3164,-1.3163,0,-1.2766,-1.2815,-1.2843,-1.2859,-1.2908,-1.292,-1.2941,-1.2974,-1.2993,-1.3022,-1.3034,-1.3066,-1.3083,-1.3107,-1.3134,-1.3135,-1.3168,-1.3174,-1.3181,-1.318,-1.3187,-1.3186,-1.319,-1.3196,-1.3196,-1.3196,-1.3196,0,-1.277,-1.2791,-1.2837,-1.2854,-1.2878,-1.291,-1.2933,-1.2956,-1.2985,-1.3007,-1.3032,-1.3051,-1.3087,-1.3111,-1.3133,-1.3159,-1.3167,-1.318,-1.3185,-1.3178,-1.3176,-1.3188,-1.3188,-1.3197,-1.3197,-1.3197,-1.3197,0,-1.2756,-1.2788,-1.282,-1.2864,-1.2876,-1.2892,-1.2929,-1.2947,-1.297,-1.2998,-1.3006,-1.3043,-1.3073,-1.3103,-1.3143,-1.3157,-1.3184,-1.3191,-1.3173,-1.3176,-1.3181,-1.318,-1.3193,-1.3197,-1.32,-1.32,-1.32,0,-1.2757,-1.2774,-1.282,-1.2837,-1.2858,-1.2884,-1.2904,-1.2936,-1.2956,-1.2995,-1.3008,-1.304,-1.3067,-1.3113,-1.3143,-1.3174,-1.3183,-1.3185,-1.3187,-1.3179,-1.3183,-1.3181,-1.3183,-1.3184,-1.3184,-1.3183,-1.3183,0,-1.2755,-1.277,-1.2798,-1.2832,-1.2855,-1.2882,-1.2911,-1.2923,-1.2961,-1.2981,-1.3013,-1.3034,-1.3075,-1.3107,-1.3141,-1.3162,-1.3179,-1.3183,-1.3186,-1.3178,-1.3167,-1.3173,-1.317,-1.3182,-1.3182,-1.3182,-1.3182,-1.3182,-1.2749,-1.2766,-1.2801,-1.2832,-1.2857,-1.2883,-1.2902,-1.2928,-1.2955,-1.2992,-1.3009,-1.3041,-1.3074,-1.3122,-1.3143,-1.3168,-1.3172,-1.3177,-1.3178,-1.3179,-1.3177,-1.3163,-1.3174,-1.3174,-1.3174,-1.3174,-1.3175,0,-1.2749,-1.2773,-1.2801,-1.284,-1.2864,-1.2879,-1.2912,-1.2931,-1.2958,-1.2988,-1.3015,-1.3051,-1.3082,-1.3115,-1.3147,-1.3161,-1.317,-1.3169,-1.3168,-1.3172,-1.3171,-1.3165,-1.3161,-1.3161,-1.3161,-1.3161,-1.3161,-1.3161,-1.2751,-1.2781,-1.28,-1.2841,-1.2866,-1.2897,-1.2915,-1.2939,-1.2963,-1.3003,-1.3029,-1.3051,-1.3082,-1.3117,-1.3146,-1.3155,-1.3166,-1.3162,-1.3173,-1.3171,-1.3172,-1.3173,-1.3168,-1.3164,-1.3164,-1.3173,-1.3173,-1.3173]},{"header":{"parameterUnit":"m.s-1","parameterCategory":1,"la1":30.2991,"la2":30.254,"lo1":-89.0895,"lo2":-89.0444,"dy":0.0017,"dx":0.0017,"nx":28,"ny":28,"refTime":"2025-08-27T21:00:00:Z","depth":0,"parameterNumber":3,"parameterNumberName":"V-component_of_WINDS"},"data":[0,0,0,0,0,0,0,0,0,0,0,0,0,0,0,0,0,0,0,0,0,0,0,0,0,0,0,0,0,0,0,0,0,0,0,0,0,0,0,0,0,0,0,0,0,0,0,0,0,0,0,0,0,0,0,0,0,0,-0.8022,-0.8024,0,-0.8167,-0.8169,-0.817,-0.8256,-0.8256,-0.8256,-0.8257,-0.8406,-0.8409,-0.8413,0,0,0,0,0,0,0,0,0,0,0,0,0,-0.782,-0.7823,-0.8022,-0.8024,-0.8026,-0.8167,-0.8169,-0.8171,-0.8256,-0.8256,-0.8256,-0.8257,-0.8404,-0.8409,-0.8413,0,0,0,0,0,0,0,0,0,0,0,0,0,-0.793,-0.7824,-0.8022,-0.8085,-0.8092,-0.8166,-0.8169,-0.8171,-0.8255,-0.8256,-0.8257,-0.8257,-0.8403,-0.8408,-0.8414,-0.8437,0,0,-0.843,-0.8433,0,0,0,0,0,0,0,0,-0.7924,-0.7938,-0.8074,-0.8081,-0.8089,-0.8194,-0.8152,-0.826,-0.8255,-0.8193,-0.8257,-0.8257,-0.8335,-0.8346,-0.8372,-0.8444,-0.845,-0.8431,-0.8434,-0.8436,-0.8438,0,0,0,0,0,0,0,-0.7916,-0.7932,-0.8079,-0.8076,-0.8085,-0.8106,-0.8123,-0.8173,-0.8259,-0.8199,-0.8205,-0.8221,-0.8339,-0.8366,-0.8376,-0.8452,-0.8431,-0.8436,-0.8439,-0.8441,-0.8551,-0.8551,0,0,0,0,0,0,-0.7898,-0.7925,-0.8075,-0.8084,-0.8006,-0.811,-0.8128,-0.816,-0.8259,-0.8275,-0.8221,-0.8225,-0.8357,-0.837,-0.8382,-0.8416,-0.8436,-0.8442,-0.8445,-0.8552,-0.8551,-0.8551,0,0,0,0,0,0,-0.7893,-0.7911,-0.8069,-0.8006,-0.8028,-0.8113,-0.8147,-0.8162,-0.819,-0.8276,-0.8291,-0.8233,-0.8358,-0.8374,-0.8423,-0.8422,-0.8444,-0.8449,-0.8552,-0.8552,-0.8551,-0.8483,0,0,0,0,0,0,-0.7887,-0.7909,-0.7918,-0.8006,-0.8031,-0.8107,-0.8147,-0.8165,-0.8199,-0.8205,-0.8291,-0.8306,-0.8359,-0.8414,-0.8428,-0.843,-0.8453,-0.8553,-0.8552,-0.8551,-0.8486,-0.848,-0.8476,0,0,0,0,0,-0.788,-0.7893,-0.7918,-0.7935,-0.8044,-0.8107,-0.8121,-0.8182,-0.8198,-0.8209,-0.8264,-0.8303,-0.842,-0.8418,-0.8435,-0.8438,-0.8553,-0.8552,-0.8551,-0.8488,-0.8482,-0.8476,0,0,0,0,0,0,-0.7802,-0.7905,-0.7934,-0.7976,-0.8032,-0.8121,-0.8135,-0.8173,-0.8226,-0.823,-0.8304,-0.8323,-0.8364,-0.8406,-0.8403,-0.8466,-0.8491,-0.8493,-0.8437,-0.8432,-0.8427,-0.8415,-0.8458,0,0,0,0,0,-0.779,-0.7832,-0.792,-0.7948,-0.7975,-0.805,-0.8079,-0.8122,-0.8183,-0.8207,-0.8266,-0.8324,-0.8374,-0.8405,-0.8456,-0.8493,-0.8513,-0.8503,-0.8498,-0.8494,-0.8495,-0.8518,-0.8515,-0.8548,-0.8548,-0.8548,0,0,-0.7765,-0.7826,-0.7848,-0.7934,-0.7982,-0.8024,-0.8069,-0.8112,-0.8144,-0.8214,-0.8263,-0.8308,-0.8378,-0.8421,-0.8443,-0.8458,-0.849,-0.8493,-0.8488,-0.8492,-0.8517,-0.8514,-0.8511,-0.8548,-0.8548,-0.8548,0,0,-0.7741,-0.7791,-0.7821,-0.7868,-0.7941,-0.7992,-0.7998,-0.8082,-0.8115,-0.8166,-0.822,-0.8259,-0.8343,-0.8391,-0.8426,-0.8422,-0.846,-0.8436,-0.841,-0.8432,-0.8429,-0.8427,-0.8426,-0.8425,-0.8437,-0.8437,-0.8437,0,-0.77,-0.7765,-0.7831,-0.7871,-0.7907,-0.7973,-0.8003,-0.8047,-0.8132,-0.8156,-0.8171,-0.8279,-0.833,-0.8386,-0.8385,-0.8411,-0.8422,-0.8426,-0.8424,-0.8423,-0.8422,-0.8422,-0.8421,-0.8434,-0.8434,-0.8434,-0.8435,0,-0.7713,-0.7757,-0.7772,-0.7853,-0.7892,-0.7926,-0.7998,-0.8029,-0.8068,-0.8117,-0.8169,-0.8233,-0.8298,-0.8315,-0.8353,-0.8376,-0.8383,-0.841,-0.8436,-0.8414,-0.8415,-0.8416,-0.8429,-0.843,-0.8431,-0.8432,0,0,-0.7642,-0.776,-0.7765,-0.7803,-0.7889,-0.7924,-0.7963,-0.8027,-0.8052,-0.8109,-0.8144,-0.8214,-0.824,-0.828,-0.8325,-0.8344,-0.8337,-0.837,-0.8372,-0.8361,-0.8367,-0.8345,-0.8344,-0.8363,-0.8364,-0.8364,-0.8361,0,-0.7631,-0.7703,-0.7763,-0.7813,-0.7855,-0.7919,-0.7952,-0.8009,-0.8056,-0.8099,-0.8151,-0.82,-0.8231,-0.8255,-0.8277,-0.8333,-0.8339,-0.8334,-0.8396,-0.8398,-0.8376,-0.8345,-0.8322,-0.8317,-0.8362,-0.8362,-0.8362,0,-0.7627,-0.7681,-0.7735,-0.7818,-0.7838,-0.7867,-0.7931,-0.7971,-0.8037,-0.807,-0.8115,-0.8162,-0.8206,-0.8228,-0.829,-0.8286,-0.8315,-0.8346,-0.8348,-0.8356,-0.8378,-0.8352,-0.8316,-0.8315,-0.8363,-0.8363,-0.8363,0,-0.757,-0.7658,-0.7701,-0.7732,-0.7829,-0.7848,-0.789,-0.7956,-0.7991,-0.8047,-0.8071,-0.8131,-0.8164,-0.821,-0.8273,-0.8283,-0.8329,-0.8355,-0.8358,-0.8356,-0.8364,-0.8362,-0.8332,-0.8383,-0.8383,-0.8383,-0.8383,0,-0.7551,-0.7581,-0.7677,-0.7704,-0.774,-0.781,-0.7845,-0.7892,-0.795,-0.7988,-0.8047,-0.8081,-0.8162,-0.8205,-0.8255,-0.8299,-0.8314,-0.8342,-0.8355,-0.8337,-0.8333,-0.8356,-0.8358,-0.8382,-0.8382,-0.8382,-0.8383,0,-0.7494,-0.7559,-0.7611,-0.7699,-0.7722,-0.7745,-0.7821,-0.785,-0.79,-0.7947,-0.7962,-0.8042,-0.8097,-0.8164,-0.824,-0.8274,-0.8313,-0.8333,-0.8291,-0.8298,-0.8297,-0.8296,-0.828,-0.8282,-0.833,-0.833,-0.8329,0,-0.7477,-0.7502,-0.7593,-0.7622,-0.7662,-0.7708,-0.7744,-0.7815,-0.785,-0.7928,-0.7947,-0.8007,-0.8058,-0.8143,-0.8208,-0.8267,-0.8288,-0.8279,-0.8297,-0.8279,-0.8288,-0.8286,-0.8289,-0.8273,-0.8272,-0.8272,-0.8271,0,-0.744,-0.7471,-0.7521,-0.7582,-0.7624,-0.7675,-0.773,-0.775,-0.7832,-0.7869,-0.7926,-0.7965,-0.8044,-0.8103,-0.817,-0.8214,-0.8256,-0.8265,-0.8269,-0.825,-0.8225,-0.8239,-0.8278,-0.8265,-0.8266,-0.8266,-0.8266,-0.8267,-0.7403,-0.7428,-0.7496,-0.755,-0.7598,-0.7648,-0.7679,-0.7734,-0.7783,-0.7852,-0.7891,-0.7947,-0.8014,-0.8109,-0.8151,-0.8197,-0.8212,-0.8217,-0.8218,-0.8218,-0.8213,-0.8218,-0.8209,-0.8209,-0.821,-0.821,-0.821,0,-0.7369,-0.7416,-0.7465,-0.7539,-0.7581,-0.7618,-0.768,-0.7714,-0.7762,-0.7821,-0.787,-0.7936,-0.7994,-0.8063,-0.8126,-0.8148,-0.8169,-0.8162,-0.8161,-0.8171,-0.8196,-0.8186,-0.8144,-0.8144,-0.8144,-0.8144,-0.8144,-0.8144,-0.7356,-0.7401,-0.7441,-0.7511,-0.7559,-0.7614,-0.7647,-0.7693,-0.774,-0.7811,-0.7859,-0.7905,-0.7968,-0.8036,-0.809,-0.8109,-0.813,-0.8117,-0.8141,-0.8163,-0.8169,-0.8174,-0.8166,-0.812,-0.812,-0.8113,-0.8113,-0.8113]}]]